Latest Coastal Weather Observations for Cato Island

IDQ60701

Issued at 11:02 am EST Sunday 24 July 2016 (issued every 10 minutes, with the page automatically refreshed every 10 minutes)

About coastal observations | Map of coastal stations | Coastal observations for QLD | Marine services | Other Formats
Station Details ID: 200601 Name: CATO ISLAND Lat: -23.25 Lon: 155.54 Height: 6.3 m
Data from the previous 72 hours. | See also: Recent months for locations in Queensland
Date/Time
EST
Temp
°C
Wind Pressure Rain since
9am
mm
Weather Cloud Vis
km
Sea
Height
m
Swell
Dir  Spd
kts
Gust
kts
hPa Trend Height
m
Period
s
Dir
24/11:00am 26.1 WNW 11 14 1016.0 - - - - - - - - -
24/10:30am 26.0 WNW 12 14 1016.3 - - - - - - - - -
24/10:00am 25.8 WNW 12 14 1016.5 - - - - - - - - -
24/09:30am 24.8 WNW 11 13 1016.6 - - - - - - - - -
24/09:00am 25.0 NW 12 14 1016.5 - - - - - - - - -
24/08:30am 24.5 WNW 12 14 1016.3 - - - - - - - - -
24/08:00am 24.1 NW 13 15 1016.1 - - - - - - - - -
24/07:30am 23.6 NW 13 15 1015.8 - - - - - - - - -
24/07:00am 23.7 NNW 14 16 1015.3 - - - - - - - - -
24/06:30am 23.2 NNW 15 18 1014.9 - - - - - - - - -
24/06:00am 23.1 NNW 16 18 1014.8 - - - - - - - - -
24/05:30am 22.9 N 16 19 1014.3 - - - - - - - - -
24/05:00am 22.9 NNW 16 17 1014.0 - - - - - - - - -
24/04:30am 23.0 NNW 14 17 1013.8 - - - - - - - - -
24/04:00am 23.1 NNW 14 16 1013.5 - - - - - - - - -
24/03:30am 23.1 NNW 14 16 1013.5 - - - - - - - - -
24/03:00am 23.1 NNW 14 17 1013.5 - - - - - - - - -
24/02:30am 23.1 NNW 13 15 1013.8 - - - - - - - - -
24/02:00am 23.1 NNW 13 15 1013.7 - - - - - - - - -
24/01:30am 23.2 NNW 13 15 1014.0 - - - - - - - - -
24/01:00am 23.0 NW 12 13 1014.3 - - - - - - - - -
24/12:30am 23.1 NNW 12 14 1014.4 - - - - - - - - -
24/12:00am 23.1 NW 11 14 1014.4 - - - - - - - - -
 
Date/Time
EST
Temp
°C
Wind Pressure Rain since
9am
mm
Weather Cloud Vis
km
Sea
Height
m
Swell
Dir  Spd
kts
Gust
kts
hPa Trend Height
m
Period
s
Dir
23/11:30pm 23.1 NW 12 15 1014.2 - - - - - - - - -
23/11:00pm 23.1 NW 11 13 1014.3 - - - - - - - - -
23/10:30pm 23.1 NW 11 12 1014.3 - - - - - - - - -
23/10:00pm 23.0 NW 11 13 1014.3 - - - - - - - - -
23/09:30pm 23.1 NW 10 13 1013.9 - - - - - - - - -
23/09:00pm 23.2 NW 11 13 1013.9 - - - - - - - - -
23/08:30pm 22.9 WNW 10 12 1014.1 - - - - - - - - -
23/08:00pm 22.9 WNW 11 13 1014.0 - - - - - - - - -
23/07:30pm 22.9 WNW 10 13 1013.9 - - - - - - - - -
23/07:00pm 22.9 WNW 12 15 1013.7 - - - - - - - - -
23/06:30pm 23.0 NW 13 16 1013.5 - - - - - - - - -
23/06:00pm 22.9 NW 14 17 1013.3 - - - - - - - - -
23/05:30pm 23.1 NW 15 17 1013.0 - - - - - - - - -
23/05:00pm 23.3 NW 15 17 1012.8 - - - - - - - - -
23/04:30pm 23.5 NW 16 19 1012.6 - - - - - - - - -
23/04:00pm 23.8 NW 16 18 1012.3 - - - - - - - - -
23/03:30pm 24.0 NW 16 19 1012.2 - - - - - - - - -
23/03:00pm 24.5 NW 16 19 1012.3 - - - - - - - - -
23/02:30pm 24.6 NW 15 17 1012.5 - - - - - - - - -
23/02:00pm 24.6 NW 15 18 1012.6 - - - - - - - - -
23/01:30pm 24.2 NNW 15 18 1012.9 - - - - - - - - -
23/01:00pm 24.4 NNW 15 17 1013.0 - - - - - - - - -
23/12:30pm 24.5 NNW 14 17 1013.4 - - - - - - - - -
23/12:00pm 24.5 NNW 15 17 1013.9 - - - - - - - - -
23/11:30am 24.7 NW 15 18 1014.2 - - - - - - - - -
23/11:00am 24.8 NNW 14 16 1014.5 - - - - - - - - -
23/10:30am 24.7 NNW 13 16 1015.0 - - - - - - - - -
23/10:00am 24.3 NNW 14 17 1015.2 - - - - - - - - -
23/09:30am 24.3 NNW 14 16 1015.3 - - - - - - - - -
23/09:00am 24.0 N 14 17 1015.4 - - - - - - - - -
23/08:30am 23.9 N 13 15 1015.3 - - - - - - - - -
23/08:00am 23.6 NNW 12 14 1015.3 - - - - - - - - -
23/07:30am 23.2 NNW 11 14 1015.2 - - - - - - - - -
23/07:00am 22.9 NNW 10 13 1015.0 - - - - - - - - -
23/06:30am 22.3 NNW 9 11 1014.7 - - - - - - - - -
23/06:00am 22.2 NNW 11 13 1014.5 - - - - - - - - -
23/05:30am 22.2 NNW 11 14 1014.2 - - - - - - - - -
23/05:00am 22.3 NNW 10 12 1013.9 - - - - - - - - -
23/04:30am 22.3 N 11 14 1013.9 - - - - - - - - -
23/04:00am 22.3 N 12 14 1013.9 - - - - - - - - -
23/03:30am 22.2 N 11 13 1014.0 - - - - - - - - -
23/03:00am 22.0 N 11 14 1014.1 - - - - - - - - -
23/02:30am 21.9 N 11 13 1014.1 - - - - - - - - -
23/02:00am 21.9 NNW 10 12 1014.3 - - - - - - - - -
23/01:30am 21.9 N 10 13 1014.5 - - - - - - - - -
23/01:00am 22.1 N 9 11 1014.9 - - - - - - - - -
23/12:30am 22.2 NNW 8 10 1015.0 - - - - - - - - -
23/12:00am 22.2 NNW 7 9 1015.1 - - - - - - - - -
 
Date/Time
EST
Temp
°C
Wind Pressure Rain since
9am
mm
Weather Cloud Vis
km
Sea
Height
m
Swell
Dir  Spd
kts
Gust
kts
hPa Trend Height
m
Period
s
Dir
22/11:30pm 22.2 N 8 11 1015.1 - - - - - - - - -
22/11:00pm 22.0 N 7 8 1015.2 - - - - - - - - -
22/10:30pm 22.1 NNW 6 9 1015.4 - - - - - - - - -
22/10:00pm 22.2 NW 7 9 1015.5 - - - - - - - - -
22/09:30pm 22.1 NNW 6 8 1015.7 - - - - - - - - -
22/09:00pm 22.2 NNW 6 8 1015.5 - - - - - - - - -
22/08:30pm 22.0 N 7 9 1015.4 - - - - - - - - -
22/08:00pm 21.9 N 6 8 1015.4 - - - - - - - - -
22/07:30pm 22.0 N 7 9 1015.5 - - - - - - - - -
22/07:00pm 21.9 N 7 10 1015.4 - - - - - - - - -
22/06:30pm 21.9 N 7 10 1015.2 - - - - - - - - -
22/06:00pm 22.0 N 7 10 1015.0 - - - - - - - - -
22/05:30pm 21.8 N 6 8 1014.7 - - - - - - - - -
22/05:00pm 22.0 N 6 8 1014.6 - - - - - - - - -
22/04:30pm 22.4 NNW 5 7 1014.5 - - - - - - - - -
22/04:00pm 23.1 N 5 6 1014.4 - - - - - - - - -
22/03:30pm 23.6 N 4 6 1014.2 - - - - - - - - -
22/03:00pm 24.1 NNE 5 7 1014.2 - - - - - - - - -
22/02:30pm 24.7 N 5 7 1014.4 - - - - - - - - -
22/02:00pm 24.3 N 5 7 1014.5 - - - - - - - - -
22/01:30pm 24.5 N 5 7 1014.7 - - - - - - - - -
22/01:00pm 24.7 N 5 7 1015.0 - - - - - - - - -
22/12:30pm 24.8 NNE 5 7 1015.6 - - - - - - - - -
22/12:00pm 24.8 NE 5 7 1015.9 - - - - - - - - -
22/11:30am 25.0 NNE 6 8 1016.4 - - - - - - - - -
22/11:00am 25.1 NNE 7 9 1016.8 - - - - - - - - -
22/10:30am 24.3 NE 6 9 1017.3 - - - - - - - - -
22/10:00am 24.1 NE 6 7 1017.5 - - - - - - - - -
22/09:30am 24.7 NE 5 8 1017.7 - - - - - - - - -
22/09:00am 24.2 ENE 6 8 1017.8 - - - - - - - - -
22/08:30am 24.2 NNE 5 7 1017.7 - - - - - - - - -
22/08:00am 23.8 NNE 5 9 1017.4 - - - - - - - - -
22/07:30am 23.0 NNE 6 8 1017.1 - - - - - - - - -
22/07:00am 22.2 NNE 6 7 1017.3 - - - - - - - - -
22/06:30am 21.9 NNE 7 9 1017.0 - - - - - - - - -
22/06:00am 21.6 NE 7 9 1016.9 - - - - - - - - -
22/05:30am 21.6 NE 8 10 1016.8 - - - - - - - - -
22/05:00am 21.7 NE 7 9 1016.6 - - - - - - - - -
22/04:30am 21.8 NE 7 9 1016.5 - - - - - - - - -
22/04:00am 21.9 NNE 6 9 1016.6 - - - - - - - - -
22/03:30am 21.8 NE 6 8 1016.6 - - - - - - - - -
22/03:00am 21.5 NE 7 9 1016.7 - - - - - - - - -
22/02:30am 21.4 NE 7 8 1016.8 - - - - - - - - -
22/02:00am 21.5 NNE 6 9 1016.9 - - - - - - - - -
22/01:30am 21.6 NE 8 11 1017.1 - - - - - - - - -
22/01:00am 21.7 NE 9 11 1017.2 - - - - - - - - -
22/12:30am 22.0 NNE 10 12 1017.5 - - - - - - - - -
22/12:00am 22.0 NNE 11 13 1017.4 - - - - - - - - -
 
Date/Time
EST
Temp
°C
Wind Pressure Rain since
9am
mm
Weather Cloud Vis
km
Sea
Height
m
Swell
Dir  Spd
kts
Gust
kts
hPa Trend Height
m
Period
s
Dir
21/11:30pm 22.2 NNE 10 12 1017.6 - - - - - - - - -
21/11:00pm 22.4 NNE 9 11 1018.0 - - - - - - - - -
21/10:30pm 22.5 NE 10 13 1018.2 - - - - - - - - -
21/10:00pm 22.5 NE 12 14 1018.2 - - - - - - - - -
21/09:30pm 22.5 NE 12 14 1018.1 - - - - - - - - -
21/09:00pm 22.3 NE 10 13 1018.1 - - - - - - - - -
21/08:30pm 22.2 NE 12 14 1017.9 - - - - - - - - -
21/08:00pm 22.5 ENE 12 15 1017.8 - - - - - - - - -
21/07:30pm 22.5 NE 13 15 1017.7 - - - - - - - - -
21/07:00pm 22.4 ENE 12 15 1017.3 - - - - - - - - -
21/06:30pm 22.6 ENE 8 11 1017.4 - - - - - - - - -
21/06:00pm 22.7 E 7 9 1017.3 - - - - - - - - -
21/05:30pm 22.7 E 6 7 1017.1 - - - - - - - - -
21/05:00pm 22.7 ENE 6 8 1017.0 - - - - - - - - -
21/04:30pm 22.9 NE 6 8 1016.9 - - - - - - - - -
21/04:00pm 23.1 ENE 6 8 1016.8 - - - - - - - - -
21/03:30pm 23.4 NE 6 8 1016.9 - - - - - - - - -
21/03:00pm 23.5 NE 7 9 1016.7 - - - - - - - - -
21/02:30pm 23.9 NE 6 9 1016.9 - - - - - - - - -
21/02:00pm 24.4 ENE 7 11 1017.0 - - - - - - - - -
21/01:30pm 23.7 ENE 8 10 1017.3 - - - - - - - - -
21/01:00pm 24.2 ENE 9 11 1017.5 - - - - - - - - -
21/12:30pm 23.9 E 8 10 1017.9 - - - - - - - - -
21/12:00pm 24.4 ENE 8 10 1018.1 - - - - - - - - -
21/11:30am 23.8 ENE 8 10 1018.6 - - - - - - - - -

Other Formats:

Comma delimited format used in spreadsheet applications
http://www.bom.gov.au/fwo/IDQ60701/IDQ60701.94394.axf

JavaScript Object Notation format (JSON) in row-major order
http://www.bom.gov.au/fwo/IDQ60701/IDQ60701.94394.json